Regional Weather Roundup
Issued by NWS

Home | Current Version | Previous Version | Graphics & Text | Print | Product List | Glossary On
Versions: 1 2 3 4 5 6 7 8 9 10 11 12 13 14 15 16 17 18 19 20 21 22 23 24 25 26 27 28 29 30 31 32 33 34 35 36 37 38 39 40 41 42 43 44 45 46 47 48 49 50
000
ASUS43 KDTX 180910
RWRMI
MICHIGAN HOURLY REGIONAL WEATHER ROUNDUP
NATIONAL WEATHER SERVICE DETROIT/PONTIAC MI
500 AM EDT SAT APR 18 2015

NOTE: "FAIR" INDICATES FEW OR NO CLOUDS BELOW 12,000 FEET WITH NO
SIGNIFICANT WEATHER AND/OR OBSTRUCTION TO VISIBILITY.

MIZ047>049-052>055-059>063-066>070-074>076-081>083-181000-
SOUTHEAST LOWER MICHIGAN

CITY           SKY/WX    TMP DP  RH WIND       PRES   REMARKS
ADRIAN         MOCLDY    50  44  80 CALM      30.03R
ALMA           CLEAR     50  42  72 W3        30.00R
ANN ARBOR      CLEAR     44  41  89 CALM      30.02R
BAD AXE        MOCLDY    47  44  88 W7        29.98R
DETROIT CITY   CLEAR     53  43  68 W5        30.01R
DETROIT        CLEAR     51  44  77 S3        30.02R
FLINT          CLEAR     49  40  71 SW6       30.01R
GROSSE ILE     CLEAR     46  45  93 CALM      30.00S FOG
HILLSDALE      MOCLDY    52  45  77 CALM      30.04R
HOWELL         CLEAR     51  40  65 S5        30.01S

CITY           SKY/WX    TMP DP  RH WIND       PRES   REMARKS
JACKSON        CLEAR     47  40  76 SW5       30.03R
LAMBERTVILLE   CLEAR     48  43  81 CALM      30.03R
LANSING          N/A     49  42  77 CALM      30.02R
LAPEER         NOT AVBL
MASON          PTCLDY    49  41  75 CALM      30.02R
MONROE         CLEAR     48  46  93 CALM      30.01S
PONTIAC        CLEAR     51  42  71 CALM      30.01R
PORT HOPE        N/A     45  40  82 W7        29.96R
PORT HURON     CLEAR     41  41 100 CALM      29.99R FOG
TRI CITIES     CLEAR     53  41  63 W7        29.99R
YPSILANTI      CLEAR     50  43  77 W6        30.02R
$$
MIZ043>046-050>051-056>058-064>065-071>073-077>080-181000-
SOUTHWEST LOWER MICHIGAN

CITY           SKY/WX    TMP DP  RH WIND       PRES   REMARKS
BATTLE CREEK   PTCLDY    56  42  59 SW5       30.03R
BENTON HARBOR  PTCLDY    52  44  74 SW6       30.01S
BIG RAPIDS     CLEAR     42  39  89 CALM      30.00S
COLDWATER      CLOUDY    50  45  81 CALM      30.03S
HOLLAND        CLEAR     53  44  71 S3        30.01S
GRAND RAPIDS   PTCLDY    49  41  74 CALM      30.01R
KALAMAZOO      PTCLDY    50  45  83 CALM      30.02S
MARSHALL       PTCLDY    49  41  73 CALM      30.03R
MUSKEGON       PTCLDY    50  41  71 CALM      30.02R
$$
MIZ016>042-181000-
NORTHERN LOWER MICHIGAN

CITY           SKY/WX    TMP DP  RH WIND       PRES   REMARKS
ALPENA         CLEAR     46  37  71 SW6       29.95S
BEAVER ISLAND  CLEAR     40  32  75 NW7       30.04R
BELLAIRE       CLEAR     37  36  93 CALM      30.03R
CADILLAC       CLEAR     43  35  75 CALM      30.00S
CHARLEVOIX     CLEAR     42  37  81 W12G17    30.05R
FRANKFORT      SUNNY     43  35  75 N8        30.04R
GAYLORD        CLEAR     45  36  70 NW6       30.00R
GRAYLING       CLEAR     32  29  91 CALM      30.00R
HARBOR SPRINGS CLEAR     40  33  76 W3        30.02R
MANISTEE       CLEAR     39  36  87 CALM      30.02S
OSCODA         CLEAR     40  37  88 SW3       29.96S
PELLSTON       CLEAR     47  34  60 W10       30.02R
TRAVERSE CITY  CLEAR     45  36  70 MISG      30.01R
$$
MIZ007>008-015-181000-
EASTERN UPPER MICHIGAN

CITY           SKY/WX    TMP DP  RH WIND       PRES   REMARKS
KINROSS        CLEAR     45  28  53 NW17      29.98R
MACKINAC ISLAN CLEAR     42  32  69 NW10G16   30.00R
NEWBERRY       CLEAR     40  30  67 N12G21    30.04R
S. S. MARIE    CLEAR     43  28  55 NW8       29.99R
$$
MIZ004>006-011>014-085-181000-
CENTRAL UPPER MICHIGAN

CITY           SKY/WX    TMP DP  RH WIND       PRES   REMARKS
MANISTIQUE     CLEAR     41  34  76 N14G22    30.06R
ESCANABA       CLEAR     45  34  65 N10G16    30.09R
MENOMINEE      CLEAR     48  34  57 N13G21    30.06R
SAWYER-GWINN   CLEAR     39  34  81 N17       30.13R
$$
MIZ001>003-009>011-084-181000-
WESTERN UPPER MICHIGAN

CITY           SKY/WX    TMP DP  RH WIND       PRES   REMARKS
IRON MOUNTAIN  CLEAR     45  33  63 N13       30.10R
HOUGHTON       CLEAR     38  32  79 N16       30.15R
COPPER HARBOR    N/A     36  32  85 N7        30.18R
IRONWOOD       CLEAR     43  32  65 E7        30.14R
$$

ABBREVIATIONS USED IN REMARKS
   TC - TEMPERATURE IN CELSIUS
  WCI - WIND CHILL INDEX
   HX - HEAT INDEX
  VSB - VISIBILITY



USA.gov is the U.S. government's official web portal to all federal, state and local government web resources and services.